weather.gov     
National Weather Service

Terminal Aerodrome Forecast
NWS Homepage
This page is being discontinued on March 12, 2014.
The same data is available at this site. Please update your bookmarks.
Thank you, and we apologize for the inconvenience.
Please send an email to SR-SRH.Webmaster@noaa.gov with any concerns.


Current Version
Previous Version:    01  02  03  04  05  06  07  08  09  10  11  12  13  14  15  16  17  18  19  20  21  22  23  24  25  26  27  28  29  30  
   31  32  33  34  35  36  37  38  39  40  41  42  43  
[Printable]
344
FTUS41 KPBZ 021400 AAA
TAFLBE
TAF AMD
KLBE 021431Z 0215/0312 22007KT P6SM SCT015 BKN025
      TEMPO 0215/0216 BKN015 BKN025
     FM021600 22008KT 6SM -SHRA BKN035
      TEMPO 0217/0221 3SM -TSRA BKN025CB
     FM022200 24008KT P6SM BKN050
     FM030900 26003KT 4SM BR SCT250=


U.S. Dept. of Commerce
NOAA National Weather Service
1325 East West Highway
Silver Spring, MD 20910
E-mail: w-nws.webmaster@noaa.gov
Page last modified: May 16, 2007
NATIONAL WEATHER SERVICE: for Safety, for Work, for Fun - FOR LIFE